Regional Weather Roundup
Issued by NWS New Orleans/Baton Rouge, LA

Home | Current Version | Previous Version | Text Only | Print | Product List | Glossary On
Versions: 1 2 3 4 5 6 7 8 9 10 11 12 13 14 15 16 17 18 19 20 21 22 23 24 25 26 27 28 29 30 31 32 33 34 35 36 37 38 39 40 41 42 43 44 45 46 47 48 49 50
580
ASUS44 KLIX 312311
RWRLIX
NEW ORLEANS REGIONAL WEATHER ROUNDUP
NATIONAL WEATHER SERVICE NEW ORLEANS LA
600 PM CDT TUE MAR 31 2015

NOTE: "FAIR" INDICATES FEW OR NO CLOUDS BELOW 12,000 FEET WITH NO
      SIGNIFICANT WEATHER AND/OR OBSTRUCTIONS TO VISIBILITY.
      SKY/WX - SKY CONDITION AND SIGNIFICANT WEATHER.
      TMP - AIR TEMPERATURE.     DP    - DEWPOINT TEMPERATURE.
      RH  - RELATIVE HUMIDITY.   PRES  - PRESSURE.
      HI  - HEAT INDEX.          WCI   - WIND CHILL INDEX.

*  THESE STATIONS ARE NOT NWS OR FAA STATIONS AND ARE NOT UNDER
   NWS QUALITY CONTROL.

LAZ038-040-048-061>063-065>067-069-010000-
SOUTHEAST LOUISIANA

CITY           SKY/WX    TMP DP  RH WIND       PRES   REMARKS
N.O. AUDUBON     N/A     78  67  68 MISG        N/A
N.O. INTL ARPT PTSUNNY   79  60  52 SW18      30.01S
N.O. LAKEFRONT MOSUNNY   79  62  56 W15       30.01S
SLIDELL        MOSUNNY   80  60  50 SW9G17    30.00R
BATON ROUGE    MOSUNNY   77  60  55 SW16      30.00S
BOOTHVILLE     MOSUNNY   76  67  73 SW12      30.04F
BELLE CHASSE   MOSUNNY   76  63  64 SW12      30.01S
BOGALUSA*        N/A     82  56  41 SW14      29.99F
GALLIANO*      PTCLDY    79  61  54 SW15G25   30.04S
NEW ROADS*       N/A     77  58  51 SW12G17   30.00R
GONZALES*        N/A     78  60  52 SW9G16    30.01S
HAMMOND*       SUNNY     81  55  41 SW10      30.01S
HOUMA*         MOSUNNY   75  64  69 SW10      30.04S
PORT FOURCHON* PTCLDY    77  66  69 W10G17    30.08S

$$

MSZ070-080>082-010000-
SOUTHERN MISSISSIPPI

CITY           SKY/WX    TMP DP  RH WIND       PRES   REMARKS
MCCOMB         MOSUNNY   80  58  46 SW9       29.98S
GULFPORT       MOSUNNY   78  63  59 S8        29.99F
BILOXI         SUNNY     76  67  76 S10       30.00S
PASCAGOULA     SUNNY     75  65  70 S6        30.01F
STENNIS ARPT*  MOSUNNY   81  54  39 MISG      30.00S

$$

COASTAL OBSERVATIONS
LAKE AND NEARSHORE STATIONS

STATION/POSITION TIME  TEMP    WIND        PRES    WAVE
                       AIR SEA DIR/SP/G            HT/PER
                 (UTC) (F)     (DEG/KT/KT) (MB)    (FT/S)
PASCAGOULA       2200   74     190/ 10/ 13 1016.3
WAVELAND YACHT   2200   77 69  210/  7/ 11 1015.8
GRAND ISLE       2200   76 72  220/  8/ 13 1017.3
SOUTHWEST PASS   2200   78 56  240/  4/  5 1018.3
NEW CANAL        2200   80     250/ 10/ 14 1016.4
SHELL BEACH      2200   77 72  210/ 17/ 21 1016.4

OFFSHORE STATIONS

STATION/POSITION TIME  TEMP    WIND        PRES    WAVE
                       AIR SEA DIR/SP/G            HT/PER
                 (UTC) (F)     (DEG/KT/KT) (MB)    (FT/S)
64 S DAUPHIN ISL 2250   74 72  240/  8/ 10 1017.8    2/ 7

$$




USA.gov is the U.S. government's official web portal to all federal, state and local government web resources and services.